Year,Month,Day,Hour,Minute,Value (Times are PST for temperature in C)
2009,01,20,00,00,-0.40
2009,01,20,00,01,-0.40
2009,01,20,00,02,-0.40
2009,01,20,00,03,-0.40
2009,01,20,00,04,-0.40
2009,01,20,00,05,-0.40
2009,01,20,00,06,-0.40
2009,01,20,00,07,-0.40
2009,01,20,00,08,-0.40
2009,01,20,00,09,-0.40
2009,01,20,00,10,-0.40
2009,01,20,00,11,-0.40
2009,01,20,00,12,-0.40
2009,01,20,00,13,-0.40
2009,01,20,00,14,-0.40
2009,01,20,00,15,-0.40
2009,01,20,00,16,-0.40
2009,01,20,00,17,-0.40
2009,01,20,00,18,-0.40
2009,01,20,00,19,-0.40
2009,01,20,00,20,-0.40
2009,01,20,00,21,-0.40
2009,01,20,00,22,-0.40
2009,01,20,00,23,-0.40
2009,01,20,00,24,-0.40
2009,01,20,00,25,-0.40
2009,01,20,00,26,-0.40
2009,01,20,00,27,-0.40
2009,01,20,00,28,-0.40
2009,01,20,00,29,-0.40
2009,01,20,00,30,-0.40
2009,01,20,00,31,-0.40
2009,01,20,00,32,-0.40
2009,01,20,00,33,-0.40
2009,01,20,00,34,-0.40
2009,01,20,00,35,-0.40
2009,01,20,00,36,-0.40
2009,01,20,00,37,-0.40
2009,01,20,00,38,-0.40
2009,01,20,00,39,-0.40
2009,01,20,00,40,-0.40
2009,01,20,00,41,-0.40
2009,01,20,00,42,-0.40
2009,01,20,00,43,-0.40
2009,01,20,00,44,-0.40
2009,01,20,00,45,-0.40
2009,01,20,00,46,-0.50
2009,01,20,00,47,-0.50
2009,01,20,00,48,-0.40
2009,01,20,00,49,-0.40
2009,01,20,00,50,-0.40
2009,01,20,00,51,-0.40
2009,01,20,00,52,-0.40
2009,01,20,00,53,-0.40
2009,01,20,00,54,-0.40
2009,01,20,00,55,-0.40
2009,01,20,00,56,-0.40
2009,01,20,00,57,-0.40
2009,01,20,00,58,-0.30
2009,01,20,00,59,-0.20
2009,01,20,01,00,-0.10
2009,01,20,01,01,-0.10
2009,01,20,01,02,-0.10
2009,01,20,01,03,-0.10
2009,01,20,01,04,-0.20
2009,01,20,01,05,-0.20
2009,01,20,01,06,-0.30
2009,01,20,01,07,-0.40
2009,01,20,01,08,-0.40
2009,01,20,01,09,-0.40
2009,01,20,01,10,-0.40
2009,01,20,01,11,-0.50
2009,01,20,01,12,-0.60
2009,01,20,01,13,-0.60
2009,01,20,01,14,-0.60
2009,01,20,01,15,-0.60
2009,01,20,01,16,-0.60
2009,01,20,01,17,-0.70
2009,01,20,01,18,-0.70
2009,01,20,01,19,-0.70
2009,01,20,01,20,-0.70
2009,01,20,01,21,-0.70
2009,01,20,01,22,-0.70
2009,01,20,01,23,-0.70
2009,01,20,01,24,-0.70
2009,01,20,01,25,-0.60
2009,01,20,01,26,-0.60
2009,01,20,01,27,-0.50
2009,01,20,01,28,-0.40
2009,01,20,01,29,-0.40
2009,01,20,01,30,-0.40
2009,01,20,01,31,-0.40
2009,01,20,01,32,-0.40
2009,01,20,01,33,-0.60
2009,01,20,01,34,-0.60
2009,01,20,01,35,-0.60
2009,01,20,01,36,-0.60
2009,01,20,01,37,-0.60
2009,01,20,01,38,-0.60
2009,01,20,01,39,-0.60
2009,01,20,01,40,-0.60
2009,01,20,01,41,-0.70
2009,01,20,01,42,-0.70
2009,01,20,01,43,-0.70
2009,01,20,01,44,-0.80
2009,01,20,01,45,-0.80
2009,01,20,01,46,-0.80
2009,01,20,01,47,-0.80
2009,01,20,01,48,-0.90
2009,01,20,01,49,-0.90
2009,01,20,01,50,-0.90
2009,01,20,01,51,-0.90
2009,01,20,01,52,-0.90
2009,01,20,01,53,-0.90
2009,01,20,01,54,-0.90
2009,01,20,01,55,-0.90
2009,01,20,01,56,-0.80
2009,01,20,01,57,-0.70
2009,01,20,01,58,-0.60
2009,01,20,01,59,-0.60
2009,01,20,02,00,-0.60
2009,01,20,02,01,-0.60
2009,01,20,02,02,-0.60
2009,01,20,02,03,-0.50
2009,01,20,02,04,-0.40
2009,01,20,02,05,-0.40
2009,01,20,02,06,-0.40
2009,01,20,02,07,-0.30
2009,01,20,02,08,-0.30
2009,01,20,02,09,-0.30
2009,01,20,02,10,-0.30
2009,01,20,02,11,-0.30
2009,01,20,02,12,-0.40
2009,01,20,02,13,-0.40
2009,01,20,02,14,-0.40
2009,01,20,02,15,-0.40
2009,01,20,02,16,-0.40
2009,01,20,02,17,-0.40
2009,01,20,02,18,-0.40
2009,01,20,02,19,-0.40
2009,01,20,02,20,-0.40
2009,01,20,02,21,-0.40
2009,01,20,02,22,-0.40
2009,01,20,02,23,-0.40
2009,01,20,02,24,-0.50
2009,01,20,02,25,-0.60
2009,01,20,02,26,-0.50
2009,01,20,02,27,-0.40
2009,01,20,02,28,-0.40
2009,01,20,02,29,-0.40
2009,01,20,02,30,-0.40
2009,01,20,02,31,-0.40
2009,01,20,02,32,-0.40
2009,01,20,02,33,-0.50
2009,01,20,02,34,-0.60
2009,01,20,02,35,-0.60
2009,01,20,02,36,-0.60
2009,01,20,02,37,-0.70
2009,01,20,02,38,-0.70
2009,01,20,02,39,-0.80
2009,01,20,02,40,-0.80
2009,01,20,02,41,-0.80
2009,01,20,02,42,-0.90
2009,01,20,02,43,-0.90
2009,01,20,02,44,-0.90
2009,01,20,02,45,-0.90
2009,01,20,02,46,-0.90
2009,01,20,02,47,-0.90
2009,01,20,02,48,-0.80
2009,01,20,02,49,-0.80
2009,01,20,02,50,-0.80
2009,01,20,02,51,-0.70
2009,01,20,02,52,-0.70
2009,01,20,02,53,-0.70
2009,01,20,02,54,-0.60
2009,01,20,02,55,-0.60
2009,01,20,02,56,-0.60
2009,01,20,02,57,-0.60
2009,01,20,02,58,-0.60
2009,01,20,02,59,-0.60
2009,01,20,03,00,-0.60
2009,01,20,03,01,-0.60
2009,01,20,03,02,-0.60
2009,01,20,03,03,-0.60
2009,01,20,03,04,-0.60
2009,01,20,03,05,-0.60
2009,01,20,03,06,-0.60
2009,01,20,03,07,-0.60
2009,01,20,03,08,-0.60
2009,01,20,03,09,-0.60
2009,01,20,03,10,-0.60
2009,01,20,03,11,-0.60
2009,01,20,03,12,-0.60
2009,01,20,03,13,-0.60
2009,01,20,03,14,-0.60
2009,01,20,03,15,-0.60
2009,01,20,03,16,-0.60
2009,01,20,03,17,-0.60
2009,01,20,03,18,-0.60
2009,01,20,03,19,-0.60
2009,01,20,03,20,-0.60
2009,01,20,03,21,-0.70
2009,01,20,03,22,-0.70
2009,01,20,03,23,-0.70
2009,01,20,03,24,-0.70
2009,01,20,03,25,-0.70
2009,01,20,03,26,-0.70
2009,01,20,03,27,-0.70
2009,01,20,03,28,-0.70
2009,01,20,03,29,-0.80
2009,01,20,03,30,-0.80
2009,01,20,03,31,-0.80
2009,01,20,03,32,-0.80
2009,01,20,03,33,-0.80
2009,01,20,03,34,-0.80
2009,01,20,03,35,-0.80
2009,01,20,03,36,-0.80
2009,01,20,03,37,-0.80
2009,01,20,03,38,-0.80
2009,01,20,03,39,-0.80
2009,01,20,03,40,-0.90
2009,01,20,03,41,-0.90
2009,01,20,03,42,-0.90
2009,01,20,03,43,-0.90
2009,01,20,03,44,-0.90
2009,01,20,03,45,-0.80
2009,01,20,03,46,-0.80
2009,01,20,03,47,-0.90
2009,01,20,03,48,-0.90
2009,01,20,03,49,-0.90
2009,01,20,03,50,-0.80
2009,01,20,03,51,-0.80
2009,01,20,03,52,-0.80
2009,01,20,03,53,-0.70
2009,01,20,03,54,-0.70
2009,01,20,03,55,-0.70
2009,01,20,03,56,-0.70
2009,01,20,03,57,-0.60
2009,01,20,03,58,-0.60
2009,01,20,03,59,-0.60
2009,01,20,04,00,-0.70
2009,01,20,04,01,-0.70
2009,01,20,04,02,-0.70
2009,01,20,04,03,-0.70
2009,01,20,04,04,-0.70
2009,01,20,04,05,-0.70
2009,01,20,04,06,-0.70
2009,01,20,04,07,-0.80
2009,01,20,04,08,-0.80
2009,01,20,04,09,-0.80
2009,01,20,04,10,-0.90
2009,01,20,04,11,-0.90
2009,01,20,04,12,-0.90
2009,01,20,04,13,-0.90
2009,01,20,04,14,-0.90
2009,01,20,04,15,-0.90
2009,01,20,04,16,-0.90
2009,01,20,04,17,-0.90
2009,01,20,04,18,-0.90
2009,01,20,04,19,-0.90
2009,01,20,04,20,-0.90
2009,01,20,04,21,-0.90
2009,01,20,04,22,-1.00
2009,01,20,04,23,-1.10
2009,01,20,04,24,-1.10
2009,01,20,04,25,-1.10
2009,01,20,04,26,-1.10
2009,01,20,04,27,-1.00
2009,01,20,04,28,-0.90
2009,01,20,04,29,-0.90
2009,01,20,04,30,-0.90
2009,01,20,04,31,-0.90
2009,01,20,04,32,-0.90
2009,01,20,04,33,-0.90
2009,01,20,04,34,-1.10
2009,01,20,04,35,-1.10
2009,01,20,04,36,-1.10
2009,01,20,04,37,-1.10
2009,01,20,04,38,-1.10
2009,01,20,04,39,-1.10
2009,01,20,04,40,-1.10
2009,01,20,04,41,-1.10
2009,01,20,04,42,-1.10
2009,01,20,04,43,-1.10
2009,01,20,04,44,-1.20
2009,01,20,04,45,-1.20
2009,01,20,04,46,-1.20
2009,01,20,04,47,-1.20
2009,01,20,04,48,-1.20
2009,01,20,04,49,-1.20
2009,01,20,04,50,-1.10
2009,01,20,04,51,-1.10
2009,01,20,04,52,-1.10
2009,01,20,04,53,-1.10
2009,01,20,04,54,-1.00
2009,01,20,04,55,-0.90
2009,01,20,04,56,-0.90
2009,01,20,04,57,-0.90
2009,01,20,04,58,-0.90
2009,01,20,04,59,-0.90
2009,01,20,05,00,-1.00
2009,01,20,05,01,-1.10
2009,01,20,05,02,-1.10
2009,01,20,05,03,-1.10
2009,01,20,05,04,-1.10
2009,01,20,05,05,-1.10
2009,01,20,05,06,-1.20
2009,01,20,05,07,-1.20
2009,01,20,05,08,-1.20
2009,01,20,05,09,-1.20
2009,01,20,05,10,-1.20
2009,01,20,05,11,-1.30
2009,01,20,05,12,-1.30
2009,01,20,05,13,-1.30
2009,01,20,05,14,-1.30
2009,01,20,05,15,-1.30
2009,01,20,05,16,-1.30
2009,01,20,05,17,-1.30
2009,01,20,05,18,-1.30
2009,01,20,05,19,-1.30
2009,01,20,05,20,-1.30
2009,01,20,05,21,-1.30
2009,01,20,05,22,-1.20
2009,01,20,05,23,-1.20
2009,01,20,05,24,-1.20
2009,01,20,05,25,-1.20
2009,01,20,05,26,-1.10
2009,01,20,05,27,-1.10
2009,01,20,05,28,-1.10
2009,01,20,05,29,-1.10
2009,01,20,05,30,-1.10
2009,01,20,05,31,-1.10
2009,01,20,05,32,-1.10
2009,01,20,05,33,-1.20
2009,01,20,05,34,-1.20
2009,01,20,05,35,-1.20
2009,01,20,05,36,-1.20
2009,01,20,05,37,-1.20
2009,01,20,05,38,-1.20
2009,01,20,05,39,-1.20
2009,01,20,05,40,-1.20
2009,01,20,05,41,-1.20
2009,01,20,05,42,-1.20
2009,01,20,05,43,-1.20
2009,01,20,05,44,-1.20
2009,01,20,05,45,-1.20
2009,01,20,05,46,-1.20
2009,01,20,05,47,-1.30
2009,01,20,05,48,-1.30
2009,01,20,05,49,-1.30
2009,01,20,05,50,-1.30
2009,01,20,05,51,-1.30
2009,01,20,05,52,-1.30
2009,01,20,05,53,-1.30
2009,01,20,05,54,-1.30
2009,01,20,05,55,-1.30
2009,01,20,05,56,-1.30
2009,01,20,05,57,-1.30
2009,01,20,05,58,-1.40
2009,01,20,05,59,-1.40
2009,01,20,06,00,-1.40
2009,01,20,06,01,-1.40
2009,01,20,06,02,-1.40
2009,01,20,06,03,-1.40
2009,01,20,06,04,-1.40
2009,01,20,06,05,-1.40
2009,01,20,06,06,-1.40
2009,01,20,06,07,-1.50
2009,01,20,06,08,-1.50
2009,01,20,06,09,-1.50
2009,01,20,06,10,-1.50
2009,01,20,06,11,-1.50
2009,01,20,06,12,-1.50
2009,01,20,06,13,-1.50
2009,01,20,06,14,-1.50
2009,01,20,06,15,-1.50
2009,01,20,06,16,-1.50
2009,01,20,06,17,-1.50
2009,01,20,06,18,-1.60
2009,01,20,06,19,-1.60
2009,01,20,06,20,-1.50
2009,01,20,06,21,-1.50
2009,01,20,06,22,-1.50
2009,01,20,06,23,-1.50
2009,01,20,06,24,-1.50
2009,01,20,06,25,-1.50
2009,01,20,06,26,-1.50
2009,01,20,06,27,-1.50
2009,01,20,06,28,-1.50
2009,01,20,06,29,-1.50
2009,01,20,06,30,-1.60
2009,01,20,06,31,-1.60
2009,01,20,06,32,-1.60
2009,01,20,06,33,-1.60
2009,01,20,06,34,-1.60
2009,01,20,06,35,-1.60
2009,01,20,06,36,-1.60
2009,01,20,06,37,-1.60
2009,01,20,06,38,-1.60
2009,01,20,06,39,-1.60
2009,01,20,06,40,-1.50
2009,01,20,06,41,-1.50
2009,01,20,06,42,-1.40
2009,01,20,06,43,-1.40
2009,01,20,06,44,-1.40
2009,01,20,06,45,-1.40
2009,01,20,06,46,-1.40
2009,01,20,06,47,-1.40
2009,01,20,06,48,-1.40
2009,01,20,06,49,-1.40
2009,01,20,06,50,-1.40
2009,01,20,06,51,-1.40
2009,01,20,06,52,-1.40
2009,01,20,06,53,-1.40
2009,01,20,06,54,-1.40
2009,01,20,06,55,-1.40
2009,01,20,06,56,-1.40
2009,01,20,06,57,-1.50
2009,01,20,06,58,-1.50
2009,01,20,06,59,-1.50
2009,01,20,07,00,-1.50
2009,01,20,07,01,-1.40
2009,01,20,07,02,-1.40
2009,01,20,07,03,-1.40
2009,01,20,07,04,-1.40
2009,01,20,07,05,-1.40
2009,01,20,07,06,-1.40
2009,01,20,07,07,-1.40
2009,01,20,07,08,-1.30
2009,01,20,07,09,-1.30
2009,01,20,07,10,-1.20
2009,01,20,07,11,-1.20
2009,01,20,07,12,-1.20
2009,01,20,07,13,-1.20
2009,01,20,07,14,-1.20
2009,01,20,07,15,-1.20
2009,01,20,07,16,-1.20
2009,01,20,07,17,-1.20
2009,01,20,07,18,-1.20
2009,01,20,07,19,-1.20
2009,01,20,07,20,-1.30
2009,01,20,07,21,-1.20
2009,01,20,07,22,-1.20
2009,01,20,07,23,-1.20
2009,01,20,07,24,-1.20
2009,01,20,07,25,-1.20
2009,01,20,07,26,-1.20
2009,01,20,07,27,-1.20
2009,01,20,07,28,-1.20
2009,01,20,07,29,-1.20
2009,01,20,07,30,-1.20
2009,01,20,07,31,-1.20
2009,01,20,07,32,-1.20
2009,01,20,07,33,-1.20
2009,01,20,07,34,-1.20
2009,01,20,07,35,-1.20
2009,01,20,07,36,-1.20
2009,01,20,07,37,-1.30
2009,01,20,07,38,-1.30
2009,01,20,07,39,-1.20
2009,01,20,07,40,-1.20
2009,01,20,07,41,-1.20
2009,01,20,07,42,-1.20
2009,01,20,07,43,-1.20
2009,01,20,07,44,-1.30
2009,01,20,07,45,-1.30
2009,01,20,07,46,-1.30
2009,01,20,07,47,-1.30
2009,01,20,07,48,-1.30
2009,01,20,07,49,-1.30
2009,01,20,07,50,-1.30
2009,01,20,07,51,-1.30
2009,01,20,07,52,-1.30
2009,01,20,07,53,-1.30
2009,01,20,07,54,-1.40
2009,01,20,07,55,-1.40
2009,01,20,07,56,-1.40
2009,01,20,07,57,-1.40
2009,01,20,07,58,-1.40
2009,01,20,07,59,-1.40
2009,01,20,08,00,-1.30
2009,01,20,08,01,-1.30
2009,01,20,08,02,-1.30
2009,01,20,08,03,-1.30
2009,01,20,08,04,-1.30
2009,01,20,08,05,-1.20
2009,01,20,08,06,-1.20
2009,01,20,08,07,-1.20
2009,01,20,08,08,-1.20
2009,01,20,08,09,-1.20
2009,01,20,08,10,-1.20
2009,01,20,08,11,-1.20
2009,01,20,08,12,-1.20
2009,01,20,08,13,-1.20
2009,01,20,08,14,-1.20
2009,01,20,08,15,-1.20
2009,01,20,08,16,-1.20
2009,01,20,08,17,-1.20
2009,01,20,08,18,-1.20
2009,01,20,08,19,-1.20
2009,01,20,08,20,-1.20
2009,01,20,08,21,-1.10
2009,01,20,08,22,-1.10
2009,01,20,08,23,-1.10
2009,01,20,08,24,-1.00
2009,01,20,08,25,-0.90
2009,01,20,08,26,-0.90
2009,01,20,08,27,-0.90
2009,01,20,08,28,-0.90
2009,01,20,08,29,-0.90
2009,01,20,08,30,-0.90
2009,01,20,08,31,-0.90
2009,01,20,08,32,-0.90
2009,01,20,08,33,-0.90
2009,01,20,08,34,-0.90
2009,01,20,08,35,-0.90
2009,01,20,08,36,-0.80
2009,01,20,08,37,-0.80
2009,01,20,08,38,-0.80
2009,01,20,08,39,-0.80
2009,01,20,08,40,-0.80
2009,01,20,08,41,-0.70
2009,01,20,08,42,-0.70
2009,01,20,08,43,-0.70
2009,01,20,08,44,-0.70
2009,01,20,08,45,-0.70
2009,01,20,08,46,-0.70
2009,01,20,08,47,-0.60
2009,01,20,08,48,-0.60
2009,01,20,08,49,-0.60
2009,01,20,08,50,-0.60
2009,01,20,08,51,-0.60
2009,01,20,08,52,-0.60
2009,01,20,08,53,-0.60
2009,01,20,08,54,-0.60
2009,01,20,08,55,-0.50
2009,01,20,08,56,-0.40
2009,01,20,08,57,-0.40
2009,01,20,08,58,-0.40
2009,01,20,08,59,-0.40
2009,01,20,09,00,-0.30
2009,01,20,09,01,-0.30
2009,01,20,09,02,-0.30
2009,01,20,09,03,-0.20
2009,01,20,09,04,-0.10
2009,01,20,09,05,-0.10
2009,01,20,09,06,-0.10
2009,01,20,09,07,0.10
2009,01,20,09,08,0.10
2009,01,20,09,09,0.10
2009,01,20,09,10,0.20
2009,01,20,09,11,0.20
2009,01,20,09,12,0.30
2009,01,20,09,13,0.40
2009,01,20,09,14,0.50
2009,01,20,09,15,0.60
2009,01,20,09,16,0.60
2009,01,20,09,17,0.60
2009,01,20,09,18,0.70
2009,01,20,09,19,0.70
2009,01,20,09,20,0.70
2009,01,20,09,21,0.70
2009,01,20,09,22,0.70
2009,01,20,09,23,0.70
2009,01,20,09,24,0.70
2009,01,20,09,25,0.70
2009,01,20,09,26,0.80
2009,01,20,09,27,0.80
2009,01,20,09,28,0.80
2009,01,20,09,29,0.90
2009,01,20,09,30,1.00
2009,01,20,09,31,1.00
2009,01,20,09,32,1.10
2009,01,20,09,33,1.10
2009,01,20,09,34,1.20
2009,01,20,09,35,1.30
2009,01,20,09,36,1.30
2009,01,20,09,37,1.30
2009,01,20,09,38,1.40
2009,01,20,09,39,1.50
2009,01,20,09,40,1.60
2009,01,20,09,41,1.70
2009,01,20,09,42,1.80
2009,01,20,09,43,2.00
2009,01,20,09,44,2.00
2009,01,20,09,45,2.10
2009,01,20,09,46,2.30
2009,01,20,09,47,2.40
2009,01,20,09,48,2.50
2009,01,20,09,49,2.60
2009,01,20,09,50,2.70
2009,01,20,09,51,2.70
2009,01,20,09,52,2.80
2009,01,20,09,53,2.80
2009,01,20,09,54,2.90
2009,01,20,09,55,2.90
2009,01,20,09,56,3.10
2009,01,20,09,57,3.10
2009,01,20,09,58,3.20
2009,01,20,09,59,3.30
2009,01,20,10,00,3.30
2009,01,20,10,01,3.30
2009,01,20,10,02,3.30
2009,01,20,10,03,3.30
2009,01,20,10,04,3.40
2009,01,20,10,05,3.60
2009,01,20,10,06,3.60
2009,01,20,10,07,3.70
2009,01,20,10,08,3.80
2009,01,20,10,09,3.80
2009,01,20,10,10,4.00
2009,01,20,10,11,4.00
2009,01,20,10,12,4.10
2009,01,20,10,13,4.20
2009,01,20,10,14,4.20
2009,01,20,10,15,4.40
2009,01,20,10,16,4.40
2009,01,20,10,17,4.40
2009,01,20,10,18,4.50
2009,01,20,10,19,4.60
2009,01,20,10,20,4.60
2009,01,20,10,21,4.60
2009,01,20,10,22,4.70
2009,01,20,10,23,4.80
2009,01,20,10,24,4.90
2009,01,20,10,25,4.90
2009,01,20,10,26,5.00
2009,01,20,10,27,5.10
2009,01,20,10,28,5.10
2009,01,20,10,29,5.20
2009,01,20,10,30,5.30
2009,01,20,10,31,5.30
2009,01,20,10,32,5.30
2009,01,20,10,33,5.30
2009,01,20,10,34,5.40
2009,01,20,10,35,5.50
2009,01,20,10,36,5.60
2009,01,20,10,37,5.70
2009,01,20,10,38,5.70
2009,01,20,10,39,5.70
2009,01,20,10,40,5.70
2009,01,20,10,41,5.80
2009,01,20,10,42,5.90
2009,01,20,10,43,6.00
2009,01,20,10,44,6.10
2009,01,20,10,45,6.20
2009,01,20,10,46,6.30
2009,01,20,10,47,6.40
2009,01,20,10,48,6.40
2009,01,20,10,49,6.40
2009,01,20,10,50,6.40
2009,01,20,10,51,6.40
2009,01,20,10,52,6.40
2009,01,20,10,53,6.50
2009,01,20,10,54,6.60
2009,01,20,10,55,6.60
2009,01,20,10,56,6.60
2009,01,20,10,57,6.60
2009,01,20,10,58,6.60
2009,01,20,10,59,6.70
2009,01,20,11,00,6.80
2009,01,20,11,01,6.80
2009,01,20,11,02,6.90
2009,01,20,11,03,6.90
2009,01,20,11,04,6.90
2009,01,20,11,05,7.00
2009,01,20,11,06,7.00
2009,01,20,11,07,7.00
2009,01,20,11,08,7.10
2009,01,20,11,09,7.20
2009,01,20,11,10,7.20
2009,01,20,11,11,7.30
2009,01,20,11,12,7.30
2009,01,20,11,13,7.40
2009,01,20,11,14,7.40
2009,01,20,11,15,7.40
2009,01,20,11,16,7.40
2009,01,20,11,17,7.50
2009,01,20,11,18,7.60
2009,01,20,11,19,7.60
2009,01,20,11,20,7.70
2009,01,20,11,21,7.80
2009,01,20,11,22,7.80
2009,01,20,11,23,7.80
2009,01,20,11,24,7.80
2009,01,20,11,25,7.80
2009,01,20,11,26,7.90
2009,01,20,11,27,7.90
2009,01,20,11,28,7.90
2009,01,20,11,29,7.90
2009,01,20,11,30,7.90
2009,01,20,11,31,7.90
2009,01,20,11,32,7.90
2009,01,20,11,33,7.90
2009,01,20,11,34,7.90
2009,01,20,11,35,8.00
2009,01,20,11,36,8.00
2009,01,20,11,37,8.00
2009,01,20,11,38,8.10
2009,01,20,11,39,8.10
2009,01,20,11,40,8.00
2009,01,20,11,41,8.00
2009,01,20,11,42,8.00
2009,01,20,11,43,7.90
2009,01,20,11,44,8.00
2009,01,20,11,45,8.00
2009,01,20,11,46,8.00
2009,01,20,11,47,8.10
2009,01,20,11,48,8.20
2009,01,20,11,49,8.20
2009,01,20,11,50,8.20
2009,01,20,11,51,8.20
2009,01,20,11,52,8.20
2009,01,20,11,53,8.20
2009,01,20,11,54,8.20
2009,01,20,11,55,8.20
2009,01,20,11,56,8.10
2009,01,20,11,57,8.20
2009,01,20,11,58,8.20
2009,01,20,11,59,8.20
2009,01,20,12,00,8.20
2009,01,20,12,01,8.20
2009,01,20,12,02,8.20
2009,01,20,12,03,8.30
2009,01,20,12,04,8.30
2009,01,20,12,05,8.30
2009,01,20,12,06,8.30
2009,01,20,12,07,8.30
2009,01,20,12,08,8.30
2009,01,20,12,09,8.40
2009,01,20,12,10,8.30
2009,01,20,12,11,8.30
2009,01,20,12,12,8.30
2009,01,20,12,13,8.30
2009,01,20,12,14,8.30
2009,01,20,12,15,8.30
2009,01,20,12,16,8.30
2009,01,20,12,17,8.30
2009,01,20,12,18,8.30
2009,01,20,12,19,8.40
2009,01,20,12,20,8.40
2009,01,20,12,21,8.50
2009,01,20,12,22,8.50
2009,01,20,12,23,8.40
2009,01,20,12,24,8.40
2009,01,20,12,25,8.40
2009,01,20,12,26,8.40
2009,01,20,12,27,8.40
2009,01,20,12,28,8.40
2009,01,20,12,29,8.40
2009,01,20,12,30,8.40
2009,01,20,12,31,8.40
2009,01,20,12,32,8.50
2009,01,20,12,33,8.60
2009,01,20,12,34,8.60
2009,01,20,12,35,8.60
2009,01,20,12,36,8.50
2009,01,20,12,37,8.50
2009,01,20,12,38,8.50
2009,01,20,12,39,8.60
2009,01,20,12,40,8.70
2009,01,20,12,41,8.70
2009,01,20,12,42,8.80
2009,01,20,12,43,8.90
2009,01,20,12,44,8.90
2009,01,20,12,45,8.90
2009,01,20,12,46,8.90
2009,01,20,12,47,8.90
2009,01,20,12,48,9.00
2009,01,20,12,49,9.00
2009,01,20,12,50,9.10
2009,01,20,12,51,9.20
2009,01,20,12,52,9.20
2009,01,20,12,53,9.20
2009,01,20,12,54,9.30
2009,01,20,12,55,9.30
2009,01,20,12,56,9.30
2009,01,20,12,57,9.30
2009,01,20,12,58,9.30
2009,01,20,12,59,9.40
2009,01,20,13,00,9.40
2009,01,20,13,01,9.40
2009,01,20,13,02,9.30
2009,01,20,13,03,9.20
2009,01,20,13,04,9.20
2009,01,20,13,05,9.10
2009,01,20,13,06,9.10
2009,01,20,13,07,9.10
2009,01,20,13,08,9.10
2009,01,20,13,09,9.10
2009,01,20,13,10,9.10
2009,01,20,13,11,9.10
2009,01,20,13,12,9.00
2009,01,20,13,13,9.00
2009,01,20,13,14,9.10
2009,01,20,13,15,9.10
2009,01,20,13,16,9.10
2009,01,20,13,17,9.10
2009,01,20,13,18,9.10
2009,01,20,13,19,9.10
2009,01,20,13,20,9.20
2009,01,20,13,21,9.20
2009,01,20,13,22,9.20
2009,01,20,13,23,9.30
2009,01,20,13,24,9.30
2009,01,20,13,25,9.40
2009,01,20,13,26,9.40
2009,01,20,13,27,9.50
2009,01,20,13,28,9.50
2009,01,20,13,29,9.40
2009,01,20,13,30,9.40
2009,01,20,13,31,9.40
2009,01,20,13,32,9.50
2009,01,20,13,33,9.50
2009,01,20,13,34,9.40
2009,01,20,13,35,9.40
2009,01,20,13,36,9.20
2009,01,20,13,37,9.20
2009,01,20,13,38,9.30
2009,01,20,13,39,9.30
2009,01,20,13,40,9.40
2009,01,20,13,41,9.40
2009,01,20,13,42,9.40
2009,01,20,13,43,9.40
2009,01,20,13,44,9.40
2009,01,20,13,45,9.40
2009,01,20,13,46,9.40
2009,01,20,13,47,9.40
2009,01,20,13,48,9.30
2009,01,20,13,49,9.30
2009,01,20,13,50,9.20
2009,01,20,13,51,9.20
2009,01,20,13,52,9.20
2009,01,20,13,53,9.20
2009,01,20,13,54,9.20
2009,01,20,13,55,9.20
2009,01,20,13,56,9.20
2009,01,20,13,57,9.20
2009,01,20,13,58,9.20
2009,01,20,13,59,9.20
2009,01,20,14,00,9.20
2009,01,20,14,01,9.20
2009,01,20,14,02,9.20
2009,01,20,14,03,9.20
2009,01,20,14,04,9.20
2009,01,20,14,05,9.20
2009,01,20,14,06,9.20
2009,01,20,14,07,9.30
2009,01,20,14,08,9.30
2009,01,20,14,09,9.30
2009,01,20,14,10,9.40
2009,01,20,14,11,9.40
2009,01,20,14,12,9.50
2009,01,20,14,13,9.50
2009,01,20,14,14,9.60
2009,01,20,14,15,9.60
2009,01,20,14,16,9.70
2009,01,20,14,17,9.70
2009,01,20,14,18,9.70
2009,01,20,14,19,9.70
2009,01,20,14,20,9.70
2009,01,20,14,21,9.70
2009,01,20,14,22,9.60
2009,01,20,14,23,9.60
2009,01,20,14,24,9.60
2009,01,20,14,25,9.50
2009,01,20,14,26,9.50
2009,01,20,14,27,9.40
2009,01,20,14,28,9.40
2009,01,20,14,29,9.40
2009,01,20,14,30,9.40
2009,01,20,14,31,9.40
2009,01,20,14,32,9.30
2009,01,20,14,33,9.30
2009,01,20,14,34,9.30
2009,01,20,14,35,9.30
2009,01,20,14,36,9.30
2009,01,20,14,37,9.30
2009,01,20,14,38,9.30
2009,01,20,14,39,9.20
2009,01,20,14,40,9.20
2009,01,20,14,41,9.20
2009,01,20,14,42,9.20
2009,01,20,14,43,9.20
2009,01,20,14,44,9.20
2009,01,20,14,45,9.20
2009,01,20,14,46,9.30
2009,01,20,14,47,9.30
2009,01,20,14,48,9.30
2009,01,20,14,49,9.30
2009,01,20,14,50,9.30
2009,01,20,14,51,9.20
2009,01,20,14,52,9.10
2009,01,20,14,53,9.00
2009,01,20,14,54,8.90
2009,01,20,14,55,8.80
2009,01,20,14,56,8.70
2009,01,20,14,57,8.60
2009,01,20,14,58,8.50
2009,01,20,14,59,8.40
2009,01,20,15,00,8.20
2009,01,20,15,01,8.20
2009,01,20,15,02,8.00
2009,01,20,15,03,7.90
2009,01,20,15,04,7.80
2009,01,20,15,05,7.60
2009,01,20,15,06,7.60
2009,01,20,15,07,7.50
2009,01,20,15,08,7.30
2009,01,20,15,09,7.20
2009,01,20,15,10,7.10
2009,01,20,15,11,7.00
2009,01,20,15,12,6.90
2009,01,20,15,13,6.90
2009,01,20,15,14,6.80
2009,01,20,15,15,6.80
2009,01,20,15,16,6.80
2009,01,20,15,17,6.70
2009,01,20,15,18,6.70
2009,01,20,15,19,6.80
2009,01,20,15,20,6.80
2009,01,20,15,21,6.70
2009,01,20,15,22,6.70
2009,01,20,15,23,6.60
2009,01,20,15,24,6.50
2009,01,20,15,25,6.40
2009,01,20,15,26,6.40
2009,01,20,15,27,6.40
2009,01,20,15,28,6.40
2009,01,20,15,29,6.30
2009,01,20,15,30,6.30
2009,01,20,15,31,6.30
2009,01,20,15,32,6.20
2009,01,20,15,33,6.20
2009,01,20,15,34,6.20
2009,01,20,15,35,6.20
2009,01,20,15,36,6.20
2009,01,20,15,37,6.20
2009,01,20,15,38,6.10
2009,01,20,15,39,6.10
2009,01,20,15,40,6.10
2009,01,20,15,41,6.00
2009,01,20,15,42,6.00
2009,01,20,15,43,6.10
2009,01,20,15,44,6.00
2009,01,20,15,45,6.00
2009,01,20,15,46,6.00
2009,01,20,15,47,6.00
2009,01,20,15,48,6.00
2009,01,20,15,49,6.00
2009,01,20,15,50,6.00
2009,01,20,15,51,6.00
2009,01,20,15,52,6.00
2009,01,20,15,53,5.90
2009,01,20,15,54,5.90
2009,01,20,15,55,5.90
2009,01,20,15,56,5.80
2009,01,20,15,57,5.80
2009,01,20,15,58,5.70
2009,01,20,15,59,5.70
2009,01,20,16,00,5.70
2009,01,20,16,01,5.70
2009,01,20,16,02,5.60
2009,01,20,16,03,5.50
2009,01,20,16,04,5.50
2009,01,20,16,05,5.40
2009,01,20,16,06,5.40
2009,01,20,16,07,5.30
2009,01,20,16,08,5.30
2009,01,20,16,09,5.30
2009,01,20,16,10,5.30
2009,01,20,16,11,5.30
2009,01,20,16,12,5.30
2009,01,20,16,13,5.20
2009,01,20,16,14,5.20
2009,01,20,16,15,5.20
2009,01,20,16,16,5.20
2009,01,20,16,17,5.10
2009,01,20,16,18,5.10
2009,01,20,16,19,5.10
2009,01,20,16,20,5.10
2009,01,20,16,21,5.10
2009,01,20,16,22,5.10
2009,01,20,16,23,5.10
2009,01,20,16,24,5.10
2009,01,20,16,25,5.10
2009,01,20,16,26,5.00
2009,01,20,16,27,4.90
2009,01,20,16,28,4.90
2009,01,20,16,29,4.90
2009,01,20,16,30,4.90
2009,01,20,16,31,4.90
2009,01,20,16,32,4.80
2009,01,20,16,33,4.80
2009,01,20,16,34,4.80
2009,01,20,16,35,4.70
2009,01,20,16,36,4.70
2009,01,20,16,37,4.70
2009,01,20,16,38,4.60
2009,01,20,16,39,4.60
2009,01,20,16,40,4.60
2009,01,20,16,41,4.60
2009,01,20,16,42,4.60
2009,01,20,16,43,4.50
2009,01,20,16,44,4.50
2009,01,20,16,45,4.40
2009,01,20,16,46,4.40
2009,01,20,16,47,4.30
2009,01,20,16,48,4.30
2009,01,20,16,49,4.20
2009,01,20,16,50,4.20
2009,01,20,16,51,4.10
2009,01,20,16,52,4.10
2009,01,20,16,53,4.00
2009,01,20,16,54,4.00
2009,01,20,16,55,3.90
2009,01,20,16,56,3.90
2009,01,20,16,57,3.80
2009,01,20,16,58,3.80
2009,01,20,16,59,3.80
2009,01,20,17,00,3.80
2009,01,20,17,01,3.70
2009,01,20,17,02,3.70
2009,01,20,17,03,3.60
2009,01,20,17,04,3.60
2009,01,20,17,05,3.60
2009,01,20,17,06,3.50
2009,01,20,17,07,3.50
2009,01,20,17,08,3.50
2009,01,20,17,09,3.40
2009,01,20,17,10,3.40
2009,01,20,17,11,3.30
2009,01,20,17,12,3.30
2009,01,20,17,13,3.30
2009,01,20,17,14,3.30
2009,01,20,17,15,3.30
2009,01,20,17,16,3.30
2009,01,20,17,17,3.30
2009,01,20,17,18,3.20
2009,01,20,17,19,3.20
2009,01,20,17,20,3.20
2009,01,20,17,21,3.20
2009,01,20,17,22,3.10
2009,01,20,17,23,3.10
2009,01,20,17,24,3.10
2009,01,20,17,25,3.10
2009,01,20,17,26,3.00
2009,01,20,17,27,2.90
2009,01,20,17,28,2.90
2009,01,20,17,29,2.90
2009,01,20,17,30,2.90
2009,01,20,17,31,2.80
2009,01,20,17,32,2.80
2009,01,20,17,33,2.80
2009,01,20,17,34,2.70
2009,01,20,17,35,2.70
2009,01,20,17,36,2.70
2009,01,20,17,37,2.70
2009,01,20,17,38,2.70
2009,01,20,17,39,2.70
2009,01,20,17,40,2.70
2009,01,20,17,41,2.70